TimeCDT,TemperatureF,Dew PointF,Humidity,Sea Level PressureIn,VisibilityMPH,Wind Direction,Wind SpeedMPH,Gust SpeedMPH,PrecipitationIn,Events,Conditions,WindDirDegrees,DateUTC
12:15 AM,37.4,31.5,79,30.25,10.0,North,11.5,-,N/A,,Clear,350,2012-10-29 05:15:00
12:35 AM,37.4,31.6,80,30.25,10.0,North,11.5,-,N/A,,Clear,360,2012-10-29 05:35:00
12:55 AM,37.4,31.6,80,30.25,10.0,North,10.4,-,N/A,,Clear,350,2012-10-29 05:55:00
1:15 AM,36.5,31.6,83,30.25,10.0,North,10.4,-,N/A,,Clear,350,2012-10-29 06:15:00
1:35 AM,36.1,31.6,84,30.26,10.0,North,9.2,-,N/A,,Clear,10,2012-10-29 06:35:00
1:55 AM,35.8,31.6,85,30.26,10.0,North,10.4,-,N/A,,Clear,360,2012-10-29 06:55:00
2:15 AM,35.2,31.5,86,30.26,10.0,North,8.1,-,N/A,,Clear,10,2012-10-29 07:15:00
2:35 AM,35.1,31.5,87,30.25,10.0,North,8.1,-,N/A,,Clear,10,2012-10-29 07:35:00
2:55 AM,35.6,32.0,87,30.25,10.0,North,8.1,-,N/A,,Clear,360,2012-10-29 07:55:00
3:15 AM,34.0,31.3,90,30.24,10.0,North,8.1,-,N/A,,Clear,360,2012-10-29 08:15:00
3:35 AM,33.8,31.1,90,30.24,10.0,North,8.1,-,N/A,,Clear,350,2012-10-29 08:35:00
3:55 AM,33.8,31.1,90,30.24,10.0,North,6.9,-,N/A,,Clear,360,2012-10-29 08:55:00
4:15 AM,33.8,30.9,89,30.25,10.0,North,5.8,-,N/A,,Clear,360,2012-10-29 09:15:00
4:35 AM,34.2,31.3,89,30.25,10.0,North,6.9,-,N/A,,Scattered Clouds,360,2012-10-29 09:35:00
4:55 AM,34.0,30.9,89,30.26,10.0,North,5.8,-,N/A,,Scattered Clouds,360,2012-10-29 09:55:00
5:15 AM,33.6,30.6,89,30.26,10.0,North,4.6,-,N/A,,Clear,350,2012-10-29 10:15:00
5:35 AM,33.8,30.6,88,30.26,10.0,North,6.9,-,N/A,,Scattered Clouds,350,2012-10-29 10:35:00
5:55 AM,33.3,30.6,90,30.26,10.0,NNW,6.9,-,N/A,,Clear,340,2012-10-29 10:55:00
6:15 AM,33.8,30.9,89,30.26,10.0,North,9.2,-,N/A,,Clear,350,2012-10-29 11:15:00
6:35 AM,34.9,31.1,86,30.26,10.0,North,8.1,-,N/A,,Clear,360,2012-10-29 11:35:00
6:55 AM,35.2,31.3,85,30.26,10.0,North,12.7,-,N/A,,Clear,360,2012-10-29 11:55:00
7:15 AM,35.2,31.6,87,30.26,10.0,North,10.4,-,N/A,,Clear,360,2012-10-29 12:15:00
7:35 AM,35.8,32.0,86,30.27,10.0,North,10.4,-,N/A,,Clear,360,2012-10-29 12:35:00
7:55 AM,36.5,32.0,84,30.27,10.0,North,9.2,-,N/A,,Clear,350,2012-10-29 12:55:00
8:15 AM,37.6,32.0,80,30.27,10.0,North,11.5,-,N/A,,Clear,350,2012-10-29 13:15:00
8:35 AM,39.2,32.0,75,30.27,10.0,North,13.8,18.4,N/A,,Clear,360,2012-10-29 13:35:00
8:55 AM,40.5,32.4,73,30.27,10.0,North,12.7,17.3,N/A,,Clear,360,2012-10-29 13:55:00
9:15 AM,41.9,32.5,69,30.27,10.0,North,13.8,-,N/A,,Clear,360,2012-10-29 14:15:00
9:35 AM,43.2,32.9,67,30.26,10.0,North,16.1,21.9,N/A,,Clear,10,2012-10-29 14:35:00
9:55 AM,44.4,33.4,65,30.26,10.0,North,15.0,20.7,N/A,,Clear,360,2012-10-29 14:55:00
10:15 AM,46.0,33.8,62,30.26,10.0,North,15.0,-,N/A,,Clear,10,2012-10-29 15:15:00
10:35 AM,46.8,34.0,61,30.26,10.0,NNE,13.8,24.2,N/A,,Clear,20,2012-10-29 15:35:00
10:55 AM,48.2,33.8,58,30.26,10.0,NNE,15.0,24.2,N/A,,Clear,20,2012-10-29 15:55:00
11:15 AM,47.8,32.5,55,30.26,10.0,North,17.3,21.9,N/A,,Clear,10,2012-10-29 16:15:00
11:35 AM,48.6,32.4,54,30.25,10.0,NE,17.3,24.2,N/A,,Clear,40,2012-10-29 16:35:00
11:55 AM,49.3,32.5,53,30.24,10.0,NNE,17.3,-,N/A,,Clear,30,2012-10-29 16:55:00
12:15 PM,50.2,32.5,51,30.24,10.0,NNE,18.4,21.9,N/A,,Scattered Clouds,30,2012-10-29 17:15:00
12:35 PM,50.0,30.2,47,30.24,10.0,North,16.1,24.2,N/A,,Scattered Clouds,360,2012-10-29 17:35:00
12:55 PM,50.0,30.9,48,30.22,10.0,North,16.1,19.6,N/A,,Scattered Clouds,360,2012-10-29 17:55:00
1:15 PM,50.5,30.4,46,30.21,10.0,North,16.1,21.9,N/A,,Scattered Clouds,10,2012-10-29 18:15:00
1:35 PM,51.1,28.9,43,30.21,10.0,North,15.0,23.0,N/A,,Clear,360,2012-10-29 18:35:00
1:55 PM,51.6,26.8,38,30.19,10.0,North,20.7,-,N/A,,Scattered Clouds,360,2012-10-29 18:55:00
2:15 PM,51.1,25.3,37,30.19,10.0,North,15.0,27.6,N/A,,Clear,10,2012-10-29 19:15:00
2:35 PM,51.6,25.7,37,30.18,10.0,NNE,20.7,25.3,N/A,,Clear,30,2012-10-29 19:35:00
2:55 PM,51.1,25.3,37,30.18,10.0,North,18.4,23.0,N/A,,Clear,360,2012-10-29 19:55:00
3:15 PM,50.9,25.9,38,30.18,10.0,NNE,17.3,24.2,N/A,,Clear,20,2012-10-29 20:15:00
3:35 PM,50.7,24.8,36,30.18,10.0,NNE,19.6,26.5,N/A,,Clear,30,2012-10-29 20:35:00
3:55 PM,49.6,27.1,42,30.17,10.0,NNE,16.1,20.7,N/A,,Clear,30,2012-10-29 20:55:00
4:15 PM,49.1,27.5,43,30.17,10.0,North,17.3,23.0,N/A,,Clear,10,2012-10-29 21:15:00
4:35 PM,49.1,26.6,42,30.17,10.0,North,16.1,24.2,N/A,,Clear,10,2012-10-29 21:35:00
4:55 PM,48.2,26.1,42,30.16,10.0,North,18.4,21.9,N/A,,Clear,10,2012-10-29 21:55:00
5:15 PM,47.8,26.8,44,30.16,10.0,NNE,17.3,25.3,N/A,,Clear,20,2012-10-29 22:15:00
5:35 PM,46.8,28.2,49,30.15,10.0,NNE,11.5,18.4,N/A,,Clear,20,2012-10-29 22:35:00
5:55 PM,45.7,28.9,52,30.15,10.0,NNE,15.0,-,N/A,,Clear,20,2012-10-29 22:55:00
6:15 PM,45.1,28.9,53,30.15,10.0,North,10.4,-,N/A,,Clear,10,2012-10-29 23:15:00
6:35 PM,44.4,29.1,55,30.15,10.0,North,10.4,-,N/A,,Clear,10,2012-10-29 23:35:00
6:55 PM,43.7,29.3,57,30.14,10.0,North,12.7,18.4,N/A,,Clear,10,2012-10-29 23:55:00
7:15 PM,44.1,28.0,53,30.14,10.0,North,11.5,-,N/A,,Clear,10,2012-10-30 00:15:00
7:35 PM,43.7,27.7,53,30.13,10.0,North,13.8,18.4,N/A,,Clear,10,2012-10-30 00:35:00
10:55 PM,41.5,27.1,57,30.06,10.0,North,17.3,24.2,N/A,,Clear,360,2012-10-30 03:55:00
11:15 PM,41.4,27.0,57,30.05,10.0,North,17.3,25.3,N/A,,Clear,360,2012-10-30 04:15:00
11:35 PM,41.0,27.1,58,30.05,10.0,North,17.3,24.2,N/A,,Clear,350,2012-10-30 04:35:00
11:55 PM,40.6,27.0,58,30.04,10.0,North,15.0,23.0,N/A,,Clear,360,2012-10-30 04:55:00